This is the latest recevied weather packets stored in our database for station/object SQ3RAX-13. If no packets are shown the sender has not sent any weather packets the latest 10 day(s).
| Time | Temp. | Humidity | Pressure | Rain* | Wind** | Luminosity | Snow |
|---|---|---|---|---|---|---|---|
| 1777511700 | 0.56° C | 76% | 1031 hPa | 0 mm | - | - | - |
| 1777511100 | 1.11° C | 71% | 1032 hPa | 0 mm | - | - | - |
| 1777510500 | 1.11° C | 71% | 1032 hPa | 0 mm | - | - | - |
| 1777509900 | 1.11° C | 71% | 1032 hPa | 0 mm | - | - | - |
| 1777509300 | 1.11° C | 71% | 1032 hPa | 0 mm | - | - | - |
| 1777508700 | 1.11° C | 75% | 1031 hPa | 0 mm | - | - | - |
| 1777508100 | 1.11° C | 76% | 1031 hPa | 0 mm | - | - | - |
| 1777507500 | 1.67° C | 71% | 1032 hPa | 0 mm | - | - | - |
| 1777506900 | 1.67° C | 71% | 1032 hPa | 0 mm | - | - | - |
| 1777506300 | 1.67° C | 71% | 1032 hPa | 0 mm | - | - | - |
| 1777505700 | 1.67° C | 71% | 1032 hPa | 0 mm | - | - | - |
| 1777505100 | 1.67° C | 74% | 1031 hPa | 0 mm | - | - | - |
| 1777504500 | 2.22° C | 70% | 1032 hPa | 0 mm | - | - | - |
| 1777503900 | 2.22° C | 70% | 1032 hPa | 0 mm | - | - | - |
| 1777503300 | 2.22° C | 70% | 1032 hPa | 0 mm | - | - | - |
| 1777502700 | 2.22° C | 69% | 1032 hPa | 0 mm | - | - | - |
| 1777502100 | 2.78° C | 68% | 1032 hPa | 0 mm | - | - | - |
| 1777501500 | 2.22° C | 71% | 1031 hPa | 0 mm | - | - | - |
| 1777500900 | 2.22° C | 69% | 1032 hPa | 0 mm | - | - | - |
| 1777500300 | 2.78° C | 67% | 1032 hPa | 0 mm | - | - | - |
| 1777499700 | 2.78° C | 67% | 1032 hPa | 0 mm | - | - | - |
| 1777499100 | 3.33° C | 67% | 1032 hPa | 0 mm | - | - | - |
| 1777498500 | 3.33° C | 65% | 1032 hPa | 0 mm | - | - | - |
| 1777497900 | 3.33° C | 66% | 1031 hPa | 0 mm | - | - | - |
| 1777497300 | 3.33° C | 65% | 1031 hPa | 0 mm | - | - | - |
* Rain latest hour (hover to see other rain measurements)
** Current wind speed in m/s (hover to see current wind gust speed)